CW9181 Weather Reports


time (UTC)temp
C
wind
direction
speed
KPH
gust
KPH
rain 1hr
cm
rain 24hr
cm
rain mn
cm
humidity
%
barometer
mb
20260506195814 21 230 4.8 8.0 0.00 0.00 0.00 61 1019.8
20260506194817 21 21 4.8 14.5 0.00 0.00 0.00 61 1019.8
20260506193818 21 353 4.8 9.7 0.00 0.00 0.00 61 1020.1
20260506192820 20 265 4.8 8.0 0.00 0.00 0.00 62 1020.3
20260506191803 20 11 1.6 9.7 0.00 0.00 0.00 65 1020.3
20260506190803 20 239 4.8 11.3 0.00 0.00 0.00 63 1020.4
20260506185805 20 347 4.8 9.7 0.00 0.00 0.00 65 1020.4
20260506184810 20 299 3.2 9.7 0.00 0.00 0.00 65 1020.6
20260506183806 20 146 1.6 8.0 0.00 0.00 0.00 64 1020.6
20260506182807 20 321 1.6 9.7 0.00 0.00 0.00 65 1020.7
20260506181806 19 109 1.6 4.8 0.00 0.00 0.00 68 1020.7
20260506180801 18 154 3.2 6.4 0.00 0.00 0.00 68 1020.7
20260506175826 18 187 1.6 8.0 0.00 0.00 0.00 68 1020.7
20260506174804 18 246 1.6 8.0 0.00 0.00 0.00 71 1020.6
20260506173818 18 296 1.6 4.8 0.00 0.00 0.00 72 1020.6
20260506172803 17 253 3.2 4.8 0.00 0.00 0.00 73 1020.6
20260506171825 17 184 0.0 4.8 0.00 0.00 0.00 72 1020.7
20260506170802 17 124 1.6 4.8 0.00 0.00 0.00 74 1020.7
20260506165803 17 282 3.2 4.8 0.00 0.00 0.00 76 1020.6
20260506164825 16 178 1.6 6.4 0.00 0.00 0.00 76 1020.6
20260506163804 16 353 1.6 4.8 0.00 0.00 0.00 76 1020.6
20260506162826 16 195 1.6 6.4 0.00 0.00 0.00 76 1020.6
20260506161810 16 176 3.2 4.8 0.00 0.00 0.00 76 1020.6
20260506160805 16 172 3.2 6.4 0.00 0.00 0.00 77 1020.6
20260506155807 15 193 4.8 6.4 0.00 0.00 0.00 78 1020.5
20260506154808 15 196 3.2 8.0 0.00 0.00 0.00 78 1020.6
20260506153824 15 176 3.2 6.4 0.00 0.00 0.00 79 1020.5
20260506152806 15 136 1.6 6.4 0.00 0.00 0.00 79 1020.5
20260506151807 15 118 4.8 8.0 0.00 0.00 0.00 80 1020.4
20260506150811 15 181 1.6 4.8 0.00 0.00 0.00 81 1020.5
20260506145811 15 151 3.2 8.0 0.00 0.00 0.00 81 1020.4
20260506144816 14 199 3.2 6.4 0.00 0.00 0.00 81 1020.4
20260506143819 14 199 3.2 9.7 0.00 0.00 0.00 82 1020.4
20260506142818 14 178 3.2 6.4 0.00 0.00 0.00 82 1020.5
20260506141801 14 189 1.6 6.4 0.00 0.00 0.00 82 1020.4
20260506140807 14 201 0.0 4.8 0.00 0.00 0.00 82 1020.3
20260506135806 14 153 0.0 4.8 0.00 0.00 0.00 82 1020.1
20260506134808 14 164 1.6 6.4 0.00 0.00 0.00 82 1020.0
20260506133812 14 182 4.8 6.4 0.00 0.00 0.00 82 1019.8
20260506132815 14 135 0.0 9.7 0.00 0.00 0.00 82 1019.8
20260506131815 14 128 3.2 6.4 0.00 0.00 0.00 82 1019.8
20260506130800 13 163 1.6 6.4 0.00 0.00 0.00 82 1019.8
20260506125801 13 137 3.2 8.0 0.00 0.00 0.00 82 1019.8
20260506124817 13 124 1.6 6.4 0.00 0.00 0.00 82 1019.8
20260506123804 13 141 1.6 9.7 0.00 0.00 0.00 82 1019.7
20260506122806 14 168 0.0 6.4 0.00 0.00 0.00 83 1019.6
20260506121807 14 140 1.6 6.4 0.00 0.00 0.00 83 1019.5
20260506120811 14 155 4.8 11.3 0.00 0.00 0.00 82 1019.5
20260506115815 14 125 1.6 9.7 0.00 0.00 0.00 82 1019.3
20260506114819 14 123 3.2 6.4 0.00 0.00 0.00 82 1019.3
20260506113840 14 141 3.2 6.4 0.00 0.00 0.00 82 1019.4
20260506112803 14 143 0.0 6.4 0.00 0.00 0.00 82 1019.4
20260506111804 14 114 0.0 6.4 0.00 0.00 0.00 82 1019.3
20260506110803 14 128 4.8 8.0 0.00 0.00 0.00 82 1019.2
20260506105808 14 132 1.6 4.8 0.00 0.00 0.00 82 1019.0
20260506104832 14 139 1.6 6.4 0.00 0.00 0.00 82 1019.0
20260506103809 14 114 3.2 6.4 0.00 0.00 0.00 82 1018.9
20260506102813 14 95 1.6 8.0 0.00 0.00 0.00 81 1018.9
20260506101818 14 144 4.8 9.7 0.00 0.00 0.00 81 1018.8
20260506100800 14 133 6.4 8.0 0.00 0.00 0.00 81 1018.8
20260506095803 14 124 3.2 11.3 0.00 0.00 0.00 81 1018.8
20260506094809 14 124 3.2 8.0 0.00 0.00 0.00 81 1018.7
20260506093807 14 131 3.2 6.4 0.00 0.00 0.00 80 1018.7
20260506092809 15 112 3.2 6.4 0.00 0.00 0.00 80 1018.7
20260506091814 15 143 1.6 8.0 0.00 0.00 0.00 80 1018.7
20260506090800 15 116 4.8 11.3 0.00 0.00 0.00 80 1018.7
20260506085817 15 167 4.8 9.7 0.00 0.00 0.00 80 1018.6
20260506084822 15 143 4.8 8.0 0.00 0.00 0.00 80 1018.7
20260506083803 15 114 4.8 6.4 0.00 0.00 0.00 80 1018.7
20260506082822 15 139 0.0 4.8 0.00 0.00 0.00 80 1018.8
20260506081804 15 140 1.6 6.4 0.00 0.00 0.00 80 1018.8
20260506080807 15 158 0.0 4.8 0.00 0.00 0.00 80 1018.7
20260506072808 15 182 0.0 3.2 0.00 0.03 0.00 80 1018.3
20260506071814 15 180 3.2 6.4 0.00 0.03 0.00 80 1018.3
20260506070835 15 186 1.6 4.8 0.00 0.03 0.00 79 1018.2
20260506061816 15 180 0.0 4.8 0.00 0.13 0.03 79 1017.8
20260506060819 15 198 1.6 8.0 0.00 0.13 0.03 78 1017.7
20260506050818 16 184 4.8 11.3 0.00 0.38 0.03 77 1017.3
20260506044802 16 182 3.2 6.4 0.00 0.66 0.03 77 1017.0
20260506043821 16 195 3.2 8.0 0.00 0.66 0.03 78 1017.0
20260506042811 16 180 0.0 6.4 0.00 0.66 0.03 77 1016.9
20260506041829 16 157 0.0 6.4 0.00 0.66 0.03 77 1016.6
20260506040803 16 161 4.8 11.3 0.00 0.66 0.03 77 1016.5
20260506035837 17 132 4.8 11.3 0.00 1.24 0.03 76 1016.3
20260506034814 17 126 4.8 8.0 0.00 1.24 0.03 76 1016.4
20260506033828 17 139 4.8 8.0 0.00 1.24 0.03 75 1016.4
20260506032805 17 141 3.2 9.7 0.00 1.24 0.03 75 1016.3
20260506031804 17 110 3.2 9.7 0.00 1.24 0.03 74 1016.2
20260506030819 17 168 0.0 4.8 0.00 1.24 0.03 73 1015.9
20260506025814 17 136 4.8 11.3 0.00 1.47 0.03 73 1015.8
20260506024809 17 172 4.8 12.9 0.00 1.47 0.03 72 1015.7
20260506023842 17 155 3.2 12.9 0.00 1.47 0.03 72 1015.6
20260506022818 17 184 6.4 16.1 0.00 1.47 0.03 72 1015.4
20260506021818 17 165 4.8 12.9 0.00 1.47 0.03 72 1015.2
20260506020811 17 120 8.0 17.7 0.00 1.47 0.03 71 1015.2
20260506015811 17 124 8.0 12.9 0.00 1.70 0.03 70 1015.2
20260506014839 18 182 8.0 16.1 0.00 1.70 0.03 69 1015.2
20260506013815 18 97 8.0 12.9 0.00 1.70 0.03 68 1015.1
20260506012817 18 101 9.7 12.9 0.00 1.70 0.03 68 1015.1
20260506011842 18 127 4.8 16.1 0.00 1.70 0.03 69 1015.2
20260506010819 18 144 4.8 16.1 0.00 1.70 0.03 68 1015.2
20260506005817 18 118 4.8 11.3 0.00 1.80 0.03 67 1015.0
20260506004817 18 96 4.8 9.7 0.00 1.80 0.03 67 1014.8
20260506003814 18 112 8.0 14.5 0.00 1.80 0.03 67 1014.8
20260506002816 18 159 3.2 11.3 0.00 1.80 0.03 67 1014.7
20260506001818 18 145 8.0 14.5 0.00 1.80 0.03 66 1014.7
20260506000811 18 103 6.4 12.9 0.00 1.80 0.03 65 1014.7
20260505235812 18 136 3.2 8.0 0.00 2.08 0.03 65 1014.7
20260505234814 18 157 3.2 8.0 0.00 2.08 0.03 64 1014.7
20260505233813 18 202 1.6 12.9 0.00 2.08 0.03 65 1014.7
20260505232812 19 184 4.8 11.3 0.00 2.08 0.03 64 1014.7
20260505231809 19 172 3.2 8.0 0.00 2.08 0.03 62 1014.6
20260505230807 19 114 4.8 8.0 0.00 2.08 0.03 62 1014.7
20260505225808 19 34 3.2 4.8 0.00 2.24 0.03 62 1014.7
20260505224801 19 143 1.6 6.4 0.00 2.24 0.03 63 1014.7
20260505223816 19 170 4.8 8.0 0.00 2.24 0.03 62 1014.7
20260505222818 18 178 0.0 4.8 0.00 2.24 0.03 64 1014.9
20260505221842 18 324 1.6 6.4 0.00 2.24 0.03 64 1015.0
20260505220816 18 57 1.6 9.7 0.00 2.24 0.03 65 1015.1
20260505215834 18 277 4.8 9.7 0.00 2.31 0.03 66 1015.1
20260505214831 18 250 3.2 6.4 0.00 2.31 0.03 65 1015.2
20260505213810 18 12 3.2 9.7 0.00 2.31 0.03 65 1015.3
20260505212833 19 349 3.2 11.3 0.00 2.31 0.03 65 1015.3
20260505211811 18 197 4.8 12.9 0.00 2.31 0.03 68 1015.3
20260505210803 18 116 3.2 12.9 0.00 2.31 0.03 67 1015.3
20260505205820 18 101 3.2 8.0 0.00 2.31 0.03 68 1015.4
20260505204820 17 156 4.8 9.7 0.00 2.31 0.03 71 1015.6
20260505203820 17 119 3.2 8.0 0.00 2.31 0.03 71 1015.5
20260505202801 17 191 3.2 9.7 0.00 2.31 0.03 74 1015.7
20260505201819 17 287 3.2 6.4 0.00 2.31 0.03 74 1015.7
20260505200813 16 228 4.8 8.0 0.00 2.31 0.03 74 1015.8